Погода в Ленинском

Россия / Кемеровская область (Кузбасс)     56°01′35″N   85°04′02″E
темп.,
°C
ветер,
м/с
пор.,
м/с
влажн.,
%
обл.,
%
осадки,
мм/ч
давл.,
гПа
погр.,
м
21 января, пт
пт2101:00−18ю2499100 0.0 103560
04:00−21ю2210075 0.0 103526
07:00−23ююв2210084 0.0 103616
10:00−24ююв1110067 0.0 103511
13:00−15ююв119438 0.0 103476
16:00−14сз11965 0.0 103313
19:00−19св1110064 0.0 103312
22:00−19св221005 0.0 103319
22 января, сб
сб2201:00−19ссв2210020 0.0 103233
04:00−19ссв229941 0.0 103223
07:00−20ссв221005 0.0 103215
10:00−21ссв1110093 0.0 103310
13:00−13в2390100 0.0 1032132
16:00−12юз1195100 0.0 103210
19:00−18ююв1199100 0.0 103410
22:00−20юв11100100 0.0 10359
23 января, вс
вс2301:00−21ююв11100100 0.0 103510
04:00−22ююв11100100 0.0 10359
07:00−23ююв11100100 0.0 103515
10:00−21ю2299100 0.0 103542
13:00−16ю1293100 0.0 1035122
16:00−14ююз1194100 0.0 103467
19:00−20юв11100100 0.0 10359
22:00−20юв11100100 0.0 10359
24 января, пн
пн2401:00−19вюв1199100 0.0 103510
04:00−19в1199100 0.0 103510
07:00−23св1110029 0.0 10369
10:00−24св1110019 0.0 103711
13:00−15с23915 0.0 1036143
16:00−13с23935 0.0 1035101
19:00−21ссв2210033 0.0 103610
22:00−24всв1110061 0.0 10379
25 января, вт
вт2501:00−25св1110052 0.0 10369
04:00−25ююв00100100 0.0 10369
07:00−23ююз1110084 0.0 103514
10:00−21ююз119995 0.0 103537
13:00−17ююз2293100 0.0 1034131
16:00−15ююз2393100 0.0 1033162
19:00−16ю2596100 0.1 1033150
22:00−15ю3596100 0.3 1033191